#timestamp,LO_Frequency,Hit,StdDev 
1600318815.4,286047000.0,N
1600318835.3,286047000.2,N
1600318855.1,286047000.4,N
1600318875.8,286046999.7,N
1600318895.7,286047001.0,N
1600318915.5,286047000.1,N
1600318935.4,286046999.8,N
1600318955.2,286046999.8,N
1600318975.0,286047002.1,N
1600318975.9,286047002.1,N
1600318995.8,286047002.4,N
1600319015.6,286047002.2,N
1600319035.5,286047004.0,Y
1600319055.3,286047000.6,P
1600319075.1,286046998.5,P
1600319095.9,286047000.5,N
1600319115.7,286047000.4,N
1600319135.5,286047002.4,N
1600319155.4,286047002.8,N
1600319175.2,286047000.4,N
1600319195.1,286047002.8,N
1600319196.0,286047002.8,N
1600319215.8,286047000.3,N
1600319235.6,286047002.8,N
1600319255.5,286047002.2,N
1600319275.3,286047002.8,N
1600319295.1,286047000.6,N
1600319315.9,286047000.6,N
1600319335.7,286047001.0,N
1600319355.6,286047001.2,N
1600319375.4,286046999.9,N
1600319395.2,286047001.1,N
1600319415.1,286046998.2,N
1600319416.0,286046998.2,N
1600319435.8,286047000.1,N
1600319455.7,286047001.0,N
1600319475.5,286047001.0,N
1600319495.3,286047000.5,N
1600319515.2,286047000.3,N
1600319535.0,286047002.5,N
1600319535.9,286047002.5,N
1600319555.7,286047002.5,N
1600319575.6,286047002.8,N
1600319595.4,286047002.2,N
1600319615.3,286047001.9,N
1600319635.1,286047006.0,Y
1600319655.8,286047002.1,P
1600319675.7,286047002.3,P
1600319695.5,286047002.1,P
1600319715.4,286046999.7,N
1600319735.2,286047000.1,N
1600319755.0,286046999.8,N
1600319755.9,286046999.8,N
1600319775.8,286046999.9,N
1600319795.6,286047001.3,N
1600319815.5,286046999.9,N
1600319835.3,286046999.7,N
1600319855.1,286047000.3,N
1600319875.9,286047000.4,N
1600319895.7,286046998.7,N
1600319915.6,286046998.8,N
1600319935.4,286046998.4,N
1600319955.2,286046998.6,N
1600319975.1,286046998.6,N
1600319976.0,286046998.6,N
1600319995.8,286046999.3,N
1600320015.6,286047000.8,N
1600320035.5,286047000.4,N
1600320055.3,286047000.0,N
1600320075.2,286047000.0,N
1600320095.9,286047000.7,N
1600320115.7,286047000.6,N
1600320135.6,286047002.0,N
1600320155.4,286047000.8,N
1600320175.3,286047000.5,N
1600320195.1,286047000.7,N
1600320215.9,286047000.3,N
1600320235.7,286047001.1,N
1600320255.6,286046998.6,N
1600320275.4,286047000.8,N
1600320295.2,286047001.2,N
1600320315.1,286046998.5,N
1600320316.0,286046998.5,N
1600320335.8,286047001.1,N
1600320355.6,286047000.5,N
1600320375.5,286047000.2,N
1600320395.3,286046999.8,N
1600320415.2,286047002.7,N
1600320435.9,286047001.8,N
1600320455.7,286047001.4,N
1600320475.6,286047000.1,N
1600320495.4,286046999.7,N
1600320515.3,286047002.7,N
1600320535.1,286047000.6,N
1600320536.0,286047000.6,N
1600320555.8,286047000.2,N
1600320575.7,286047000.6,N
1600320595.5,286047000.5,N
1600320615.4,286047002.6,N
1600320635.2,286047002.6,N
1600320655.0,286047001.5,N
1600320655.9,286047001.5,N
1600320675.8,286047003.5,Y
1600320695.6,286047004.3,P
1600320715.5,286047001.4,N
1600320735.3,286047001.9,N
1600320755.1,286047001.8,N
1600320775.9,286047001.3,N
1600320795.7,286047002.2,N
1600320815.6,286047000.2,N
1600320835.4,286047000.0,N
1600320855.2,286047000.7,N
1600320875.1,286046999.9,N
1600320876.0,286046999.9,N
1600320895.8,286047000.5,N
1600320915.7,286047000.7,N
1600320935.5,286046998.2,N
1600320955.4,286047000.6,N
1600320975.2,286046999.9,N
1600320995.0,286047000.1,N
1600320995.9,286047000.1,N
1600321015.8,286046999.7,N
1600321035.6,286047002.3,N
1600321055.4,286047002.4,N
1600321075.3,286047004.4,Y
1600321095.1,286046999.7,P
1600321115.9,286046998.3,N
1600321135.7,286046998.6,N
1600321155.5,286046998.9,N
1600321175.4,286046998.5,N
1600321195.2,286046999.9,N
1600321215.1,286047001.0,N
1600321216.0,286047001.0,N
1600321235.8,286047000.0,N
1600321255.6,286047002.4,N
1600321275.5,286047002.7,N
1600321295.7,286047002.4,N
1600321315.5,286047002.4,N
1600321335.3,286046999.7,N
1600321355.2,286046999.7,N
1600321375.0,286046999.8,N
1600321375.9,286046999.8,N
1600321395.8,286047001.2,N
1600321415.6,286046998.2,N
1600321435.4,286047001.0,N
1600321455.3,286046999.7,N
1600321475.1,286047002.4,N
1600321495.8,286047001.6,N
1600321515.7,286046999.8,N
1600321535.5,286047001.5,N
1600321555.4,286047000.2,N
1600321575.2,286047000.6,N
1600321595.0,286047000.5,N
1600321595.9,286047000.5,N
1600321615.8,286046998.5,N
1600321635.6,286047000.9,N
1600321655.4,286047000.6,N
1600321675.3,286047000.3,N
1600321695.1,286047001.0,N
1600321715.9,286047000.6,N
1600321735.7,286047000.1,N
1600321755.5,286047002.2,N
1600321775.4,286047000.2,N
1600321795.2,286046999.7,N
1600321815.1,286047000.9,N
1600321816.0,286047000.9,N
1600321835.8,286046998.4,N
1600321855.6,286047001.0,N
1600321875.5,286046998.4,N
1600321895.3,286046998.6,N
1600321915.1,286046996.9,N
1600321935.9,286046997.5,N
1600321955.7,286046997.1,N
1600321975.6,286046997.1,N
1600321995.4,286046999.6,N
1600322015.2,286046999.3,N
1600322035.1,286046998.3,N
1600322036.0,286046998.3,N
1600322055.8,286046996.9,N
1600322075.6,286046997.1,N
1600322095.5,286046996.5,N
1600322115.3,286046997.7,N
1600322135.2,286046996.7,N
1600322155.0,286046997.0,N
1600322155.9,286046997.0,N
1600322175.8,286046996.9,N
1600322195.6,286046999.6,N
1600322215.4,286046998.6,N
1600322235.3,286046999.0,N
1600322255.1,286046997.0,N
1600322256.0,286046997.0,N
1600322275.8,286046997.1,N
1600322295.7,286046996.8,N
1600322315.5,286046996.9,N
1600322335.4,286046997.8,N
1600322355.2,286046995.4,Y
1600322375.0,286046998.5,P
1600322376.0,286046998.5,P
1600322395.8,286047001.0,P
